CGXMF CYXU-ZZZZ

Flight info

Callsign CGXMF
Flight time N/A
Altitude 1900
Route CYXU/15 VFR SOUTHBOUND
Aircraft C172

Departure

Time 2026-05-04 23:56
Airport London International Airport (CYXU)

Arrival

Time N/A
Airport ZZZZ
Time Latitude Longitude Altitude Speed Heading
2026-05-04 23:54 43.01056 -81.11802 1317 ft 86 kts 155°
2026-05-04 23:54 43.00591 -81.11391 1319 ft 78 kts 163°
2026-05-04 23:54 43.00059 -81.11154 1278 ft 83 kts 173°
2026-05-04 23:54 42.99525 -81.10992 1324 ft 79 kts 175°
2026-05-04 23:55 42.98999 -81.10828 1328 ft 77 kts 174°
2026-05-04 23:55 42.98468 -81.10648 1262 ft 83 kts 176°
2026-05-04 23:55 42.97362 -81.10414 1295 ft 78 kts 180°
2026-05-04 23:56 42.96838 -81.10239 1448 ft 76 kts 178°
2026-05-04 23:56 42.96335 -81.10080 1566 ft 74 kts 179°
2026-05-04 23:56 42.95813 -81.09910 1543 ft 81 kts 178°
2026-05-04 23:56 42.95267 -81.09739 1547 ft 76 kts 176°
2026-05-04 23:57 42.94759 -81.09621 1514 ft 78 kts 179°
2026-05-04 23:57 42.94238 -81.09553 1442 ft 72 kts 184°
2026-05-04 23:57 42.93743 -81.09589 1423 ft 70 kts 188°
2026-05-04 23:57 42.93267 -81.09611 1443 ft 67 kts 188°
2026-05-04 23:58 42.92808 -81.09627 1448 ft 66 kts 187°
2026-05-04 23:58 42.92360 -81.09630 1428 ft 65 kts 188°
2026-05-04 23:58 42.91937 -81.09581 1476 ft 56 kts 183°
2026-05-04 23:58 42.91576 -81.09521 1646 ft 35 kts 194°
2026-05-04 23:59 42.91271 -81.09533 1643 ft 48 kts 189°
2026-05-04 23:59 42.90895 -81.09551 1611 ft 60 kts 187°
2026-05-04 23:59 42.90505 -81.09530 1712 ft 56 kts 186°
2026-05-04 23:59 42.90096 -81.09519 1772 ft 60 kts 190°
2026-05-05 00:00 42.89711 -81.09502 1835 ft 56 kts 186°
2026-05-05 00:00 42.89585 -81.09486 1864 ft 52 kts 189°
2026-05-05 00:00 42.89010 -81.09422 2017 ft 50 kts 196°
2026-05-05 00:00 42.88652 -81.09384 2048 ft 55 kts 187°
2026-05-05 00:01 42.88266 -81.09179 2013 ft 61 kts 182°
2026-05-05 00:01 42.87832 -81.08896 1890 ft 76 kts 174°
2026-05-05 00:01 42.87411 -81.08550 1941 ft 70 kts 175°
2026-05-05 00:01 42.86946 -81.08320 1857 ft 68 kts 183°
2026-05-05 00:02 42.86503 -81.08188 1879 ft 60 kts 185°
2026-05-05 00:02 42.86091 -81.08007 1847 ft 66 kts 179°
2026-05-05 00:02 42.85672 -81.07780 1851 ft 66 kts 181°
2026-05-05 00:02 42.85249 -81.07560 1889 ft 65 kts 182°
2026-05-05 00:03 42.84826 -81.07336 1944 ft 64 kts 182°
2026-05-05 00:03 42.84403 -81.07112 1948 ft 67 kts 182°
2026-05-05 00:03 42.83951 -81.06909 1931 ft 68 kts 182°
2026-05-05 00:03 42.83527 -81.06774 1995 ft 62 kts 182°
2026-05-05 00:04 42.83126 -81.06600 2036 ft 59 kts 183°
2026-05-05 00:04 42.82713 -81.06448 2024 ft 63 kts 186°
2026-05-05 00:04 42.82252 -81.06369 1950 ft 68 kts 189°
2026-05-05 00:04 42.81798 -81.06305 1967 ft 62 kts 191°
2026-05-05 00:05 42.81388 -81.06212 1970 ft 62 kts 193°
2026-05-05 00:05 42.80952 -81.06157 1941 ft 62 kts 197°
2026-05-05 00:05 42.80506 -81.06158 1862 ft 67 kts 197°
2026-05-05 00:05 42.80015 -81.06209 1722 ft 73 kts 199°
2026-05-05 00:06 42.79519 -81.06348 1595 ft 73 kts 205°
2026-05-05 00:06 42.79060 -81.06541 1582 ft 66 kts 208°
2026-05-05 00:06 42.78682 -81.06765 1704 ft 48 kts 211°
2026-05-05 00:06 42.78372 -81.06992 1651 ft 59 kts 214°
2026-05-05 00:07 42.78023 -81.07363 1616 ft 64 kts 221°
2026-05-05 00:07 42.77673 -81.07731 1568 ft 65 kts 231°
2026-05-05 00:07 42.77525 -81.08318 1361 ft 62 kts 243°
2026-05-05 00:07 42.77435 -81.08948 1134 ft 75 kts 251°
2026-05-05 00:08 42.77383 -81.09635 889 ft 66 kts 252°
2026-05-05 00:08 42.77358 -81.10188 775 ft 48 kts 255°
2026-05-05 00:08 42.77350 -81.10335 772 ft 7 kts 253°
2026-05-05 00:08 42.77335 -81.10481 772 ft 37 kts 253°